Zurück zum Katalog

STARLINK-6035

AktivKommunikationSSO
NORAD 56323·PAYLOAD·🇺🇸 United States

Gestartet Apr 27, 2023 von Vandenberg Space Force Base

Loading…

Nächste Überflüge (nächste 24 Stunden)

TLE

AktuellSource: CelesTrak SupGP

Epoche: Sep 14, 2026, 21:27 UTC

1 56323C 23058G   26257.89423611  .00637580  00000+0  38087-1 0  2575
2 56323  97.2853 252.0540 0001484  81.1503  56.0392 15.10865534    12

Verfolge STARLINK-6035 in Echtzeit mit AllMySat

Download on the App Store